Weather History for PHBK - December, 2012

Change the Weather History Date:

Sunday, December 30, 2012

  Actual Average Record
Temperature  
Mean Temperature 74 °F -  
Max Temperature 81 °F 81 °F 87 °F (1969)
Min Temperature 68 °F 63 °F 59 °F (1971)
Cooling Degree Days 10    
Growing Degree Days 24 (Base 50)    
Moisture  
Dew Point 69 °F    
Average Humidity 83    
Maximum Humidity 96    
Minimum Humidity 67    
Precipitation  
Precipitation 0.00 in - - ()
Sea Level Pressure  
Sea Level Pressure 30.00 in    
Wind  
Wind Speed 6 mph (NE)    
Max Wind Speed 12 mph    
Max Gust Speed -    
Visibility 10 miles    
Events      
Averages and records for this station are not official NWS values.
T = Trace of Precipitation, MM = Missing Value Source: NWS Daily Summary

Daily Weather History Graph

Daily Weather History Graph

Search for Another Location

Airport or City:

Trip Planner

Search our weather history database for the weather conditions in past years. The results will help you decide how hot, cold, wet, or windy it might be!

Date:

Astronomy

Dec. 30, 2012 Rise Set
Actual Time 7:17 AM HST 6:06 PM HST
Civil Twilight 6:53 AM HST 6:30 PM HST
Nautical Twilight 6:25 AM HST 6:58 PM HST
Astronomical Twilight 5:58 AM HST 7:26 PM HST
Moon 8:29 PM HST (12/30) 8:50 AM HST (12/30)
Length of Visible Light 11h 37m
Length of Day
10h 48m
Waning Gibbous, 94% of the Moon is Illuminated
Dec 30
Waning Gibbous
Jan 4
Last Quarter
Jan 11
New
Jan 18
First Quarter
Jan 26
Full

Hourly Weather History & Observations

Time (HST) Temp. Heat Index Dew Point Humidity Pressure Visibility Wind Dir Wind Speed Gust Speed Precip Events Conditions
12:56 AM 68.0 °F - 66.0 °F 93% 29.99 in 10.0 mi East 4.6 mph - N/A   Partly Cloudy
1:56 AM 69.1 °F - 66.0 °F 90% 29.98 in 10.0 mi East 5.8 mph - N/A   Clear
2:56 AM 69.1 °F - 64.9 °F 87% 29.97 in 10.0 mi East 5.8 mph - N/A   Clear
3:56 AM 68.0 °F - 64.0 °F 87% 29.97 in 10.0 mi ENE 6.9 mph - N/A   Clear
4:56 AM 68.0 °F - 63.0 °F 84% 29.98 in 10.0 mi ENE 5.8 mph - N/A   Clear
5:56 AM 68.0 °F - 64.9 °F 90% 29.99 in 10.0 mi East 4.6 mph - N/A   Clear
6:56 AM 68.0 °F - 64.9 °F 90% 30.00 in 10.0 mi ENE 5.8 mph - N/A   Clear
7:56 AM 68.0 °F - 63.0 °F 84% 30.02 in 10.0 mi East 3.5 mph - N/A   Clear
8:56 AM 75.0 °F - 68.0 °F 79% 30.03 in 10.0 mi Calm Calm - N/A   Clear
9:56 AM 79.0 °F - 69.1 °F 72% 30.04 in 10.0 mi SE 6.9 mph - N/A   Clear
10:56 AM 80.1 °F 84.5 °F 73.9 °F 81% 30.03 in 10.0 mi SSE 10.4 mph - N/A   Clear
11:56 AM 81.0 °F 84.1 °F 69.1 °F 67% 30.01 in 10.0 mi South 11.5 mph - N/A   Clear
12:56 PM 80.1 °F 84.5 °F 73.9 °F 81% 29.99 in 10.0 mi North 6.9 mph - N/A   Scattered Clouds
1:09 PM 80.6 °F 86.2 °F 75.2 °F 84% 29.97 in 10.0 mi NNW 9.2 mph - N/A   Mostly Cloudy
1:56 PM 81.0 °F 85.8 °F 73.0 °F 77% 29.98 in 10.0 mi NNW 9.2 mph - N/A   Mostly Cloudy
2:04 PM 80.6 °F 85.4 °F 73.4 °F 79% 29.97 in 10.0 mi NNW 8.1 mph - N/A   Mostly Cloudy
2:56 PM 80.1 °F 85.4 °F 75.9 °F 87% 29.96 in 10.0 mi NNW 8.1 mph - N/A   Mostly Cloudy
3:15 PM 80.6 °F 84.6 °F 71.6 °F 74% 29.96 in 10.0 mi NNW 8.1 mph - N/A   Scattered Clouds
3:56 PM 80.1 °F 85.1 °F 75.0 °F 85% 29.97 in 10.0 mi North 10.4 mph - N/A   Partly Cloudy
4:46 PM 80.6 °F 85.4 °F 73.4 °F 79% 29.97 in 10.0 mi NNW 8.1 mph - N/A   Partly Cloudy
4:56 PM 80.1 °F 83.2 °F 70.0 °F 71% 29.98 in 10.0 mi North 8.1 mph - N/A   Scattered Clouds
5:56 PM 78.1 °F - 71.1 °F 79% 30.00 in 10.0 mi North 4.6 mph - N/A   Scattered Clouds
6:56 PM 73.9 °F - 68.0 °F 82% 30.01 in 10.0 mi ESE 3.5 mph - N/A   Clear
7:56 PM 73.0 °F - 72.0 °F 96% 30.04 in 10.0 mi Calm Calm - N/A   Clear
8:56 PM 70.0 °F - 66.9 °F 90% 30.06 in 10.0 mi East 3.5 mph - N/A   Partly Cloudy
9:56 PM 70.0 °F - 66.0 °F 87% 30.05 in 10.0 mi East 4.6 mph - N/A   Clear
10:56 PM 70.0 °F - 64.0 °F 81% 30.04 in 10.0 mi Calm Calm - N/A   Clear
11:56 PM 69.1 °F - 66.9 °F 93% 30.04 in 10.0 mi Calm Calm - N/A   Clear